Date String (YYYY-MM-DD hh:mm:ss) UTC,Instrument flags,Ambient pressure (hPa),Sample flow (lpm),Bypass flow (lpm),Sample temperature (°C),Ambient temperature (°C),ASC tube jacket temperature (°C),LED temperature (°C),Box temperature (°C),Sample RH (%),Span deviation,Mass concentration (μg/m³),Mass concentration (μg/m³),Mass concentration (μg/m³)
DateTimeUTC,F1_M11,P_M11,Q1_M11,Q2_M11,T1_M11,T2_M11,T3_M11,T4_M11,T5_M11,U1_M11,ZSPAN_M11,X0_M11,X2_M11,X1_M11
2021-11-27 23:00:00,,0830.3,4.99,0.00,25.7,25.0,00.0,34.7,27.4,11.3,0000.0,0008.13,0002.84,0001.46
2021-11-27 23:01:00,,0830.3,4.99,0.00,25.7,24.9,00.0,34.7,27.4,11.3,0000.0,0008.12,0002.80,0001.46
2021-11-27 23:02:00,,0830.3,5.01,0.00,25.7,25.0,00.0,34.7,27.5,11.2,0000.0,0008.15,0002.82,0001.45
2021-11-27 23:03:00,,0830.3,5.00,0.00,25.7,25.0,00.0,34.7,27.4,11.3,0000.0,0008.24,0002.81,0001.47
2021-11-27 23:04:00,,0830.2,4.99,0.00,25.7,25.0,00.0,34.7,27.5,11.3,0000.0,0008.13,0002.85,0001.48
2021-11-27 23:05:00,,0830.3,5.01,0.00,25.7,25.0,00.0,34.7,27.5,11.2,0000.0,0008.41,0002.89,0001.51
2021-11-27 23:06:00,,0830.3,5.00,0.00,25.7,25.0,00.0,34.7,27.5,11.0,0000.0,0008.69,0002.90,0001.53
2021-11-27 23:07:00,,0830.3,4.99,0.00,25.7,25.0,00.0,34.7,27.4,10.9,0000.0,0008.96,0002.95,0001.57
2021-11-27 23:08:00,,0830.3,5.01,0.00,25.7,25.0,00.0,34.7,27.4,10.9,0000.0,0008.93,0003.04,0001.60
2021-11-27 23:09:00,,0830.3,4.99,0.00,25.7,25.0,00.0,34.7,27.5,10.9,0000.0,0009.21,0003.09,0001.62
2021-11-27 23:10:00,,0830.3,5.01,0.00,25.7,25.0,00.0,34.7,27.4,10.8,0000.0,0009.28,0003.08,0001.62
2021-11-27 23:11:00,,0830.3,4.99,0.00,25.7,25.0,00.0,34.7,27.5,10.7,0000.0,0009.18,0003.07,0001.63
2021-11-27 23:12:00,,0830.3,5.01,0.00,25.7,25.0,00.0,34.7,27.4,10.7,0000.0,0009.39,0003.12,0001.65
2021-11-27 23:13:00,,0830.3,4.99,0.00,25.7,25.0,00.0,34.7,27.4,10.7,0000.0,0009.34,0003.13,0001.69
2021-11-27 23:14:00,,0830.3,4.99,0.00,25.7,24.9,00.0,34.7,27.4,10.7,0000.0,0009.90,0003.13,0001.70
2021-11-27 23:15:00,,0830.3,5.01,0.00,25.7,24.9,00.0,34.7,27.4,10.7,0000.0,0010.29,0003.14,0001.71
2021-11-27 23:16:00,,0830.2,5.00,0.00,25.6,24.9,00.0,34.7,27.4,10.6,0000.0,0009.89,0003.15,0001.72
2021-11-27 23:17:00,,0830.3,5.01,0.00,25.7,24.9,00.0,34.7,27.4,10.6,0000.0,0009.54,0003.14,0001.72
2021-11-27 23:18:00,,0830.3,4.99,0.00,25.6,24.9,00.0,34.7,27.4,10.6,0000.0,0010.51,0003.17,0001.73
2021-11-27 23:19:00,,0830.3,5.02,0.00,25.6,24.8,00.0,34.7,27.4,10.6,0000.0,0010.38,0003.14,0001.73
2021-11-27 23:20:00,,0830.3,5.00,0.00,25.6,24.8,00.0,34.7,27.4,10.6,0000.0,0010.56,0003.12,0001.73
2021-11-27 23:21:00,,0830.3,4.99,0.00,25.6,24.8,00.0,34.7,27.4,10.6,0000.0,0010.99,0003.14,0001.76
2021-11-27 23:22:00,,0830.2,5.01,0.00,25.6,24.8,00.0,34.7,27.3,10.5,0000.0,0010.83,0003.17,0001.79
2021-11-27 23:23:00,,0830.3,4.99,0.00,25.6,24.8,00.0,34.6,27.3,10.5,0000.0,0010.71,0003.16,0001.81
2021-11-27 23:24:00,,0830.2,5.01,0.00,25.6,24.8,00.0,34.6,27.3,10.5,0000.0,0010.70,0003.19,0001.83
2021-11-27 23:25:00,,0830.2,5.01,0.00,25.6,24.8,00.0,34.6,27.3,10.5,0000.0,0010.57,0003.22,0001.86
2021-11-27 23:26:00,,0830.3,5.00,0.00,25.6,24.8,00.0,34.6,27.3,10.5,0000.0,0010.96,0003.25,0001.91
2021-11-27 23:27:00,,0830.3,5.01,0.00,25.6,24.8,00.0,34.6,27.3,10.5,0000.0,0011.63,0003.25,0001.94
2021-11-27 23:28:00,,0830.3,4.99,0.00,25.5,24.8,00.0,34.6,27.3,10.5,0000.0,0011.77,0003.28,0001.98
2021-11-27 23:29:00,,0830.3,5.00,0.00,25.5,24.8,00.0,34.6,27.3,10.4,0000.0,0011.14,0003.32,0002.02
2021-11-27 23:30:00,,0830.4,5.00,0.00,25.5,24.8,00.0,34.6,27.3,10.4,0000.0,0012.36,0003.38,0002.09
2021-11-27 23:31:00,,0830.4,4.99,0.00,25.6,24.8,00.0,34.6,27.4,10.4,0000.0,0011.88,0003.43,0002.17
2021-11-27 23:32:00,,0830.4,5.01,0.00,25.6,24.9,00.0,34.6,27.4,10.4,0000.0,0011.10,0003.45,0002.23
2021-11-27 23:33:00,,0830.4,5.00,0.00,25.6,24.9,00.0,34.6,27.4,10.4,0000.0,0011.46,0003.48,0002.29
2021-11-27 23:34:00,,0830.4,4.99,0.00,25.6,24.9,00.0,34.6,27.4,10.4,0000.0,0012.23,0003.59,0002.38
2021-11-27 23:35:00,,0830.4,5.00,0.00,25.6,24.9,00.0,34.6,27.4,10.4,0000.0,0012.47,0003.62,0002.43
2021-11-27 23:36:00,,0830.4,5.00,0.00,25.6,25.0,00.0,34.6,27.4,10.3,0000.0,0013.27,0003.67,0002.47
2021-11-27 23:37:00,,0830.4,5.00,0.00,25.6,25.0,00.0,34.6,27.4,10.3,0000.0,0012.24,0003.69,0002.53
2021-11-27 23:38:00,,0830.4,5.01,0.00,25.6,25.0,00.0,34.6,27.4,10.3,0000.0,0012.38,0003.69,0002.57
2021-11-27 23:39:00,,0830.4,4.99,0.00,25.7,25.1,00.0,34.6,27.4,10.3,0000.0,0012.59,0003.76,0002.62
2021-11-27 23:40:00,,0830.4,5.01,0.00,25.7,25.1,00.0,34.6,27.5,10.3,0000.0,0013.11,0003.79,0002.69
2021-11-27 23:41:00,,0830.3,5.00,0.00,25.7,25.1,00.0,34.6,27.5,10.3,0000.0,0012.69,0003.80,0002.72
2021-11-27 23:42:00,,0830.3,5.01,0.00,25.7,25.1,00.0,34.6,27.5,10.3,0000.0,0013.17,0003.82,0002.75
2021-11-27 23:43:00,,0830.3,4.99,0.00,25.7,25.1,00.0,34.6,27.5,10.3,0000.0,0014.60,0003.88,0002.79
2021-11-27 23:44:00,,0830.3,5.00,0.00,25.7,25.1,00.0,34.6,27.5,10.3,0000.0,0014.68,0003.92,0002.82
2021-11-27 23:45:00,,0830.2,5.00,0.00,25.7,25.1,00.0,34.7,27.6,10.3,0000.0,0014.22,0003.92,0002.81
2021-11-27 23:46:00,,0830.2,5.01,0.00,25.7,25.1,00.0,34.7,27.6,10.3,0000.0,0014.35,0003.96,0002.84
2021-11-27 23:47:00,,0830.3,5.00,0.00,25.7,25.1,00.0,34.7,27.6,10.3,0000.0,0014.12,0004.02,0002.87
2021-11-27 23:48:00,,0830.4,5.00,0.00,25.7,25.1,00.0,34.7,27.6,10.3,0000.0,0014.82,0004.10,0002.87
2021-11-27 23:49:00,,0830.4,4.99,0.00,25.8,25.1,00.0,34.7,27.6,10.3,0000.0,0015.91,0004.16,0002.88
2021-11-27 23:50:00,,0830.4,5.02,0.00,25.8,25.1,00.0,34.7,27.6,10.3,0000.0,0016.72,0004.16,0002.87
2021-11-27 23:51:00,,0830.5,5.00,0.00,25.8,25.1,00.0,34.7,27.6,10.3,0000.0,0017.40,0004.16,0002.82
2021-11-27 23:52:00,,0830.5,4.99,0.00,25.8,25.2,00.0,34.7,27.7,10.3,0000.0,0017.22,0004.17,0002.77
2021-11-27 23:53:00,,0830.5,5.01,0.00,25.8,25.2,00.0,34.7,27.7,10.3,0000.0,0017.57,0004.21,0002.72
2021-11-27 23:54:00,,0830.5,4.99,0.00,25.8,25.2,00.0,34.7,27.7,10.3,0000.0,0016.32,0004.14,0002.66
2021-11-27 23:55:00,,0830.4,5.01,0.00,25.8,25.2,00.0,34.7,27.7,10.3,0000.0,0016.42,0004.11,0002.61
2021-11-27 23:56:00,,0830.4,5.00,0.00,25.8,25.2,00.0,34.7,27.7,10.3,0000.0,0016.15,0004.05,0002.55
2021-11-27 23:57:00,,0830.5,5.00,0.00,25.8,25.2,00.0,34.7,27.7,10.3,0000.0,0016.00,0003.97,0002.49
2021-11-27 23:58:00,,0830.5,4.99,0.00,25.8,25.2,00.0,34.8,27.7,10.3,0000.0,0016.65,0003.88,0002.44
2021-11-27 23:59:00,,0830.5,5.00,0.00,25.9,25.2,00.0,34.8,27.7,10.3,0000.0,0015.91,0003.78,0002.37
